Location: Brno
(49.2000°N, 16.6330°E)
Time: 15:57:25
(UTC+02:00)

Cosmos 2227 - Visible Passes

Search period start: 29 April 2016 00:00
Search period end: 09 May 2016 00:00
Orbit: 835 x 861 km, 71.0° (Epoch: 28 April)

Date Brightness Start Highest point End Pass type
(mag) Time Alt. Az. Time Alt. Az. Time Alt. Az.
29 Apr 5.4 20:51:41 10° NNW 20:56:36 30° NE 21:01:31 10° ESE visible
29 Apr 4.5 22:35:38 10° NW 22:41:10 60° WSW 22:43:39 32° S visible
30 Apr 5.4 20:38:35 10° NNW 20:43:29 29° NE 20:48:23 10° ESE visible
30 Apr 4.5 22:22:31 10° NW 22:28:05 61° WSW 22:31:03 27° S visible
01 May 4.5 22:09:24 10° NW 22:14:58 61° WSW 22:18:30 23° S visible
02 May 4.5 21:56:18 10° NW 22:01:52 62° WSW 22:05:58 19° S visible
03 May 4.5 21:43:12 10° NNW 21:48:46 63° WSW 21:53:29 15° S visible
03 May 6.8 23:31:34 10° W 23:31:48 10° W 23:32:02 10° W visible
04 May 4.5 21:30:04 10° NNW 21:35:40 64° WSW 21:41:02 11° SSE visible
04 May 6.7 23:17:59 10° W 23:18:43 10° W 23:19:27 10° WSW visible
05 May 4.5 21:16:57 10° NNW 21:22:34 65° WSW 21:28:09 10° SSE visible
05 May 6.8 23:04:37 10° W 23:05:36 10° W 23:06:37 10° WSW visible
06 May 4.6 21:03:51 10° NNW 21:09:27 66° WSW 21:15:03 10° SSE visible
06 May 6.8 22:51:19 10° W 22:52:31 11° W 22:53:45 10° WSW visible
07 May 4.6 20:50:44 10° NNW 20:56:20 67° WSW 21:01:57 10° SSE visible
07 May 6.8 22:38:02 10° W 22:39:26 11° W 22:40:51 10° WSW visible
08 May 6.8 22:24:47 10° WNW 22:26:20 11° W 22:27:55 10° WSW visible
